#timestamp,LO_Frequency,Hit,StdDev 
1535954415.7,286047001.2,N
1535954435.5,286046998.7,N
1535954455.3,286046998.1,N
1535954475.2,286047000.9,N
1535954495.0,286046997.2,N
1535954495.9,286046997.2,N
1535954515.7,286046997.0,N
1535954535.6,286046995.6,N
1535954555.4,286046994.9,N
1535954575.3,286046999.2,N
1535954595.1,286046999.3,N
1535954596.0,286046999.3,N
1535954615.8,286046999.3,N
1535954635.7,286046998.1,N
1535954655.5,286047001.1,N
1535954675.3,286047000.3,N
1535954695.2,286047002.3,N
1535954715.0,286047000.0,N
1535954715.9,286047000.0,N
1535954735.8,286046996.7,N
1535954755.6,286046999.1,N
1535954775.4,286046996.6,N
1535954795.3,286046999.6,N
1535954815.1,286046997.5,N
1535954835.8,286046997.8,N
1535954855.7,286046997.2,N
1535954875.5,286046998.3,N
1535954895.3,286047000.2,N
1535954915.2,286047000.9,N
1535954935.0,286047002.2,N
1535954935.9,286047002.2,N
1535954955.8,286047001.5,N
1535954975.6,286047002.2,N
1535954995.4,286047000.5,N
1535955015.3,286046998.1,N
1535955035.1,286047001.2,N
1535955055.8,286046998.7,N
1535955075.7,286047000.7,N
1535955095.5,286046998.5,N
1535955115.4,286047000.8,N
1535955135.2,286046996.6,N
1535955155.0,286046997.2,N
1535955155.9,286046997.2,N
1535955175.8,286046998.4,N
1535955195.6,286046999.5,N
1535955215.4,286046999.4,N
1535955235.3,286046998.1,N
1535955255.1,286046995.1,N
1535955275.9,286046997.5,N
1535955295.7,286046996.9,N
1535955315.5,286046998.0,N
1535955335.4,286046996.4,N
1535955355.2,286046995.3,N
1535955375.0,286046997.5,N
1535955375.9,286046997.5,N
1535955395.8,286046998.9,N
1535955415.6,286047001.2,N
1535955435.5,286046999.4,N
1535955455.3,286046996.7,N
1535955475.1,286046999.2,N
1535955495.9,286046996.8,N
1535955515.7,286046996.8,N
1535955535.5,286046998.6,N
1535955555.4,286046998.9,N
1535955575.2,286046999.1,N
1535955595.0,286047001.2,N
1535955596.0,286047001.2,N
1535955615.8,286046998.2,N
1535955635.6,286046997.8,N
1535955655.5,286046997.9,N
1535955675.3,286046997.3,N
1535955695.1,286046999.0,N
1535955715.9,286046998.1,N
1535955735.7,286047002.7,N
1535955755.5,286047002.4,N
1535955775.4,286047002.6,N
1535955795.2,286047002.7,N
1535955815.1,286047000.5,N
1535955816.0,286047000.5,N
1535955835.8,286046998.3,N
1535955855.6,286046998.6,N
1535955875.5,286046998.1,N
1535955895.3,286046998.4,N
1535955915.1,286046998.9,N
1535955935.9,286046995.4,N
1535955955.7,286046997.7,N
1535955975.6,286046996.9,N
1535955995.4,286046996.5,N
1535956015.2,286046997.0,N
1535956035.1,286046999.1,N
1535956036.0,286046999.1,N
1535956055.8,286046999.9,N
1535956075.7,286046999.7,N
1535956095.5,286046999.9,N
1535956115.3,286047000.0,N
1535956135.2,286047000.0,N
1535956155.0,286047000.7,N
1535956155.9,286047000.7,N
1535956175.8,286047001.0,N
1535956195.6,286046998.5,N
1535956215.4,286046998.2,N
1535956235.3,286046996.7,N
1535956255.1,286046997.8,N
1535956275.8,286046997.1,N
1535956295.7,286046995.4,N
1535956315.5,286046994.3,Y
1535956335.4,286046992.8,P
1535956355.2,286046994.5,N
1535956375.0,286046992.1,P
1535956375.9,286046992.1,Y
1535956395.8,286047001.2,P
1535956415.6,286047000.6,N
1535956435.5,286047002.5,N
1535956455.3,286047004.1,N
1535956475.1,286047001.3,N
1535956495.9,286047001.4,N
1535956515.7,286047005.5,N
1535956535.5,286047006.9,N
1535956555.4,286047005.8,N
1535956575.2,286047002.9,N
1535956595.1,286047004.8,N
1535956596.0,286047004.8,N
1535956615.8,286047004.8,N
1535956635.6,286047006.0,N
1535956655.5,286047007.5,N
1535956675.3,286047007.2,N
1535956695.1,286047009.1,N
1535956715.9,286047006.8,N
1535956735.7,286047005.7,N
1535956755.6,286047001.6,N
1535956775.4,286047001.8,N
1535956795.2,286047003.1,N
1535956815.1,286047003.7,N
1535956816.0,286047003.7,N
1535956835.8,286047003.0,N
1535956855.6,286047005.8,N
1535956875.5,286047004.5,N
1535956895.3,286047003.5,N
1535956915.2,286047004.4,N
1535956935.9,286047000.3,N
1535956955.7,286046998.4,N
1535956975.6,286047000.0,N
1535956995.4,286047002.8,N
1535957015.2,286047001.8,N
1535957035.1,286047001.6,N
1535957036.0,286047001.6,N
1535957055.8,286047002.6,N
1535957075.7,286047001.5,N
1535957095.5,286047004.0,N
1535957115.3,286047002.1,N
1535957135.2,286047003.5,N
1535957155.0,286047005.9,N
1535957155.9,286047005.9,N
1535957175.7,286047005.6,N
1535957195.6,286047005.4,N
1535957215.4,286047004.7,N
1535957235.3,286047007.4,Y
1535957255.1,286047001.8,P
1535957275.8,286047004.1,P
1535957295.7,286047001.4,N
1535957315.5,286047002.0,N
1535957335.4,286047002.6,N
1535957355.2,286047000.2,N
1535957375.0,286046998.5,N
1535957375.9,286046998.5,N
1535957395.8,286046998.5,N
1535957415.6,286046998.9,N
1535957435.4,286047000.7,N
1535957455.3,286047002.0,N
1535957475.1,286047000.4,N
1535957495.9,286046998.8,N
1535957515.7,286046997.0,N
1535957535.5,286046997.5,N
1535957555.4,286046996.1,N
1535957575.2,286046996.8,N
1535957625.1,286046997.5,E
1535957635.9,286046999.0,N
1535957655.7,286046999.9,P
1535957675.6,286047004.2,P
1535957695.4,286047004.3,N
1535957715.2,286047005.5,N
1535957735.1,286047002.9,N
1535957736.0,286047002.9,N
1535957755.8,286047004.6,N
1535957775.7,286047003.4,N
1535957795.5,286047005.5,N
1535957815.3,286047003.9,N
1535957835.2,286047003.5,N
1535957855.9,286047004.3,N
1535957875.7,286047004.2,N
1535957895.6,286047005.2,N
1535957915.4,286047008.7,Y
1535957935.3,286047004.1,P
1535957955.1,286047001.4,P
1535957956.0,286047001.4,N
1535957975.8,286047002.8,N
1535957995.7,286047002.4,N
